Retour au catalogue

IRIDE-MS1-EAG2-3

ActifScienceSSO
NORAD 66697·PAYLOAD·🇮🇹 Italy

Lancé Nov 28, 2025 depuis Vandenberg Space Force Base

Loading…

Prochains Passages (prochaines 24 heures)

TLE

FraisSource: Space-Track

Époque: Sep 14, 2026, 03:23 UTC

1 66697U 25276AH  26257.14158639  .00005940  00000-0  26400-3 0  9998
2 66697  97.4109 329.5772 0002431  47.3901 312.7540 15.21890599 43968

Suivez IRIDE-MS1-EAG2-3 en temps réel avec AllMySat

Download on the App Store